CDT,Max TemperatureF,Mean TemperatureF,Min TemperatureF,Max Dew PointF,MeanDew PointF,Min DewpointF,Max Humidity, Mean Humidity, Min Humidity, Max Sea Level PressureIn, Mean Sea Level PressureIn, Min Sea Level PressureIn, Max VisibilityMiles, Mean VisibilityMiles, Min VisibilityMiles, Max Wind SpeedMPH, Mean Wind SpeedMPH, Max Gust SpeedMPH,PrecipitationIn, CloudCover, Events, WindDirDegrees
2013-3-1,24,14,3,18,10,0,100,85,69,30.37,30.33,30.25,10,9,0,10,6,,0.00,1,Fog,329
2013-3-2,23,10,-2,16,8,-8,92,83,74,30.34,30.22,30.06,10,7,0,16,5,17,0.00,6,Fog-Snow,137
2013-3-3,30,22,15,23,17,12,93,79,64,30.06,29.92,29.83,10,10,2,29,17,33,0.00,3,Snow,129
2013-3-4,26,24,23,23,22,21,93,87,86,29.93,29.85,29.79,7,4,0,26,21,33,0.00,8,Snow,128
2013-3-5,32,24,17,23,20,16,100,87,64,30.34,30.14,29.90,10,5,1,24,14,31,0.02,6,Snow,348
2013-3-6,24,20,15,16,15,12,93,83,69,30.41,30.35,30.29,10,8,2,16,9,,0.00,8,Snow,360
2013-3-7,26,20,15,19,16,12,93,84,69,30.31,30.23,30.14,10,7,4,26,16,29,0.00,3,,134
2013-3-8,33,21,10,30,19,9,93,85,69,30.22,30.16,29.97,10,4,2,16,9,,0.36,1,,118
2013-3-9,33,30,24,34,31,23,100,94,86,29.96,29.80,29.69,5,2,0,30,7,36,0.91,8,Fog-Snow,13
2013-3-10,24,17,10,23,17,7,93,88,80,30.08,30.01,29.88,10,6,2,29,23,34,0.00,6,,337
2013-3-11,24,12,1,21,8,-2,92,81,68,30.00,29.87,29.81,10,10,5,15,11,,0.00,4,Snow,318
2013-3-12,26,20,15,23,17,12,93,85,74,30.27,30.05,29.83,10,6,1,30,18,38,0.00,6,Snow,324
2013-3-13,24,12,1,21,10,0,92,82,63,30.37,30.28,30.11,10,10,5,20,10,,0.00,2,Snow,278
2013-3-14,35,27,19,28,24,18,100,85,70,30.10,30.05,30.00,10,7,4,25,12,25,0.00,2,Snow,134
2013-3-15,32,28,24,28,26,21,100,91,80,30.01,29.92,29.82,10,5,1,17,10,,0.08,8,Snow,26
2013-3-16,24,12,0,23,3,-6,100,82,72,30.26,30.16,29.97,10,10,2,18,13,,0.00,2,Snow,329
2013-3-17,26,13,0,25,8,-6,93,81,72,30.26,29.99,29.61,10,8,0,33,14,40,0.00,5,Snow,119
2013-3-18,33,20,6,32,13,1,100,84,73,29.92,29.68,29.45,10,3,0,38,27,46,0.00,7,Snow,284
2013-3-19,14,7,0,5,0,-8,85,72,57,30.28,30.13,29.93,10,10,4,24,18,28,0.00,1,,313
2013-3-20,15,6,-2,7,0,-8,85,74,58,30.31,30.24,30.14,10,10,10,20,15,25,0.00,0,,313
2013-3-21,19,6,-7,10,0,-9,92,76,58,30.13,30.08,30.04,10,10,10,7,3,,0.00,0,,330
2013-3-22,23,10,-2,14,5,-8,92,81,68,30.10,30.06,30.04,10,10,5,7,3,,0.00,1,,331
2013-3-23,24,14,5,18,12,1,92,81,68,30.17,30.14,30.08,10,10,7,13,8,,0.00,2,,317
2013-3-24,30,21,12,27,17,10,93,85,64,30.14,30.09,30.05,10,8,1,22,12,28,0.00,6,Snow,332
2013-3-25,28,22,15,21,19,10,93,83,74,30.30,30.21,30.12,10,10,10,23,17,29,0.00,4,Snow,330
2013-3-26,26,16,5,18,11,1,100,84,69,30.32,30.29,30.26,10,10,3,14,9,,0.00,0,,327
2013-3-27,35,19,3,27,16,0,93,80,65,30.30,30.28,30.26,10,8,0,15,6,,0.00,2,Fog-Snow,119
2013-3-28,37,30,24,30,26,18,93,80,70,30.27,30.23,30.20,10,10,10,16,12,20,0.00,2,,127
2013-3-29,41,34,28,36,32,27,100,88,81,30.20,30.11,29.91,10,5,2,16,10,,0.00,4,Thunderstorm,127
2013-3-30,39,36,33,36,33,30,100,90,81,29.94,29.91,29.86,7,3,0,22,12,24,0.03,4,Fog-Rain-Thunderstorm,310
2013-3-31,33,26,19,34,23,16,100,80,69,30.18,30.00,29.84,10,9,3,31,18,37,0.00,4,,326